This is the latest recevied weather packets stored in our database for station/object SP6PWT-13. If no packets are shown the sender has not sent any weather packets the latest 10 day(s).
| Time | Temp. | Humidity | Pressure | Rain* | Wind** | Luminosity | Snow |
|---|---|---|---|---|---|---|---|
| 1777662536 | 18.33° C | 43% | 1009 hPa | 0 mm | - | 0 W/m² | - |
| 1777662236 | 18.89° C | 43% | 1009.1 hPa | 0 mm | - | 0 W/m² | - |
| 1777661935 | 18.89° C | 43% | 1009.2 hPa | 0 mm | - | 0 W/m² | - |
| 1777661635 | 18.33° C | 44% | 1009.1 hPa | 0 mm | - | 0 W/m² | - |
| 1777661334 | 18.89° C | 43% | 1008.9 hPa | 0 mm | - | 0 W/m² | - |
| 1777661034 | 18.89° C | 42% | 1009 hPa | 0 mm | - | 0 W/m² | - |
| 1777660734 | 18.89° C | 42% | 1008.9 hPa | 0 mm | - | 0 W/m² | - |
| 1777660434 | 18.89° C | 42% | 1008.9 hPa | 0 mm | - | 0 W/m² | - |
| 1777660134 | 18.89° C | 42% | 1008.9 hPa | 0 mm | - | 0 W/m² | - |
| 1777659833 | 19.44° C | 41% | 1009 hPa | 0 mm | - | 1 W/m² | - |
| 1777659533 | 19.44° C | 41% | 1008.8 hPa | 0 mm | - | 1 W/m² | - |
| 1777659232 | 19.44° C | 40% | 1008.8 hPa | 0 mm | - | 3 W/m² | - |
| 1777658921 | 20° C | 40% | 1008.9 hPa | 0 mm | - | 4 W/m² | - |
| 1777658621 | 20° C | 40% | 1008.7 hPa | 0 mm | - | 6 W/m² | - |
| 1777658311 | 20° C | 40% | 1008.5 hPa | 0 mm | - | 8 W/m² | - |
| 1777658011 | 20° C | 39% | 1008.7 hPa | 0 mm | - | 11 W/m² | - |
| 1777657710 | 20.56° C | 38% | 1008.7 hPa | 0 mm | - | 14 W/m² | - |
| 1777657409 | 20.56° C | 38% | 1008.6 hPa | 0 mm | - | 17 W/m² | - |
| 1777657109 | 20.56° C | 38% | 1008.6 hPa | 0 mm | - | 20 W/m² | - |
| 1777656808 | 20.56° C | 37% | 1008.6 hPa | 0 mm | - | 23 W/m² | - |
| 1777656508 | 20.56° C | 37% | 1008.6 hPa | 0 mm | - | 27 W/m² | - |
| 1777656208 | 20.56° C | 37% | 1008.6 hPa | 0 mm | - | 30 W/m² | - |
| 1777655907 | 20.56° C | 37% | 1008.5 hPa | 0 mm | - | 34 W/m² | - |
| 1777655607 | 20.56° C | 37% | 1008.5 hPa | 0 mm | - | 39 W/m² | - |
| 1777655306 | 20.56° C | 37% | 1008.6 hPa | 0 mm | - | 45 W/m² | - |
* Rain latest hour (hover to see other rain measurements)
** Current wind speed in m/s (hover to see current wind gust speed)